www.pogodaiklimat.ru

Погода и климат >> Архив погоды >> Россия >> город Москва >> Москва (Балчуг)


ПОГОДА в Москве (Балчуг)

  • Прогноз погоды в Москве (Балчуг)
  • Монитор погоды в Москве (Балчуг)

АРХИВ ПОГОДЫ в Москве (Балчуг)

Время (UTC), дата Ветер
(напр.,м/с)
 
Видим.   Явления Облачность Т
(С)
Тd
(С)
f
(%)
Тe
(С)
Тes
(С)
Комфортность P
(гПа)
Po
(гПа)
Тmin
(С)
Tmax
(С)
R
(мм)
R24
(мм)
S
(см)
06 15.04 СВ 2 10 км 10/10 1000 м
[Sc]
+3.7 -5.0 53 +1 +1 1026.9 1011.3 +0.9 4
09 15.04 СВ 3 10 км 3/0
[Ac As]
+8.5 -7.3 32 +7 +14 1027.8 1012.4
12 15.04 СВ 2 10 км ясно +12.6 -12.2 16 +12 +20 1026.5 1011.4
15 15.04 СВ 2 10 км ясно +12.1 -12.6 16 +12 +13 1026.1 1010.9
18 15.04 С 2 10 км ясно +9.6 -12.2 20 +9 +9 1027.0 1011.7 +13.3
21 15.04 СВ 2 10 км ясно +6.4 -9.6 31 +5 +5 1027.7 1012.2
00 16.04 С 1 10 км ясно +4.7 -7.6 40 +4 +4 1027.7 1012.2
03 16.04 СВ 1 10 км 9/0
[Ci fib]
+4.2 -6.3 46 +4 +4 1027.2 1011.6 +4.2
06 16.04 С 2 10 км ясно +9.1 -6.0 34 +8 +14 1026.9 1011.6 +4.2
09 16.04 С 2 10 км ясно +12.4 -3.7 32 +12 +23 опасность
простуды
1026.2 1011.1
12 16.04 С 2 10 км ясно +14.1 -2.9 31 +14 +22 1025.4 1010.4
15 16.04 СВ 3 10 км ясно +12.2 -3.1 34 +11 +12 1025.7 1010.6
18 16.04 СВ 2 10 км ясно +9.4 -2.3 44 +8 +8 1027.8 1012.5 +14.3
21 16.04 СВ 3
{10}
10 км ясно +5.3 -3.3 54 +2 +2 1030.9 1015.3
00 17.04 СВ 2 10 км 10/0
[Ac und]
+4.8 -4.5 51 +3 +3 1031.8 1016.1
03 17.04 СВ 1 10 км ясно +3.7 -5.1 53 +3 +3 1032.7 1017.0 +3.7
06 17.04 СВ 1 10 км ясно +7.2 -5.3 41 +7 +14 1033.9 1018.4 +3.5
09 17.04 В 1 10 км ясно +9.2 -7.2 31 +9 +23 опасность
простуды
1033.9 1018.5
12 17.04 СЗ 1 10 км 9/0
[Cc]
+11.2 -9.6 22 +12 +20 1032.6 1017.3
15 17.04 штиль 0 10 км 9/0
[Ci fib]
+10.5 -10.5 22 +11 +12 1031.1 1015.8
18 17.04 СВ 1 10 км ясно +8.9 -9.7 26 +9 +9 1031.4 1016.0 +11.6
21 17.04 штиль 0 10 км 9/0
[Ci fib]
+7.7 -10.7 26 +8 +8 1031.2 1015.7
00 18.04 штиль 0 10 км ясно +6.0 -10.3 30 +6 +6 1030.2 1014.7
03 18.04 штиль 0 10 км 3/0
[Ac trans]
+4.8 -7.7 40 +5 +5 1028.9 1013.3 +4.6
06 18.04 СЗ 1 10 км 9/0
[Ci]
+10.0 -6.9 30 +10 +16 1027.3 1012.1 +4.6
09 18.04 СВ 2 10 км 9/9 1000 м
[Cu Sc]
+11.4 -6.5 28 +11 +12 1026.6 1011.4
12 18.04 СВ 2 10 км 9/9 1000 м
[Sc]
+11.6 -7.0 27 +11 +12 1027.2 1012.0
15 18.04 СВ 2 10 км 9/9 1000 м
[Sc]
+10.8 -6.8 28 +10 +10 1027.6 1012.4
18 18.04 СВ 2 10 км 3/0
[Ac trans]
+9.0 -7.6 30 +8 +8 1029.3 1013.9 +11.9
21 18.04 СВ 1 10 км 8/0
[Ac trans]
+7.1 -4.0 45 +7 +7 1030.2 1014.7
00 19.04 СВ 2 10 км 4/0
[Ac trans]
+5.6 -3.3 53 +4 +4 1030.8 1015.2
03 19.04 СВ 1 10 км ясно +3.9 -3.3 59 +3 +3 1031.3 1015.6 +3.9
06 19.04 С 1 10 км ясно +7.8 -3.9 43 +8 +15 1031.7 1016.2 +3.8
09 19.04 СВ 1 10 км 3/3 1000 м
[Cu med, cong]
+11.5 -8.9 23 +12 +22 1031.0 1015.7
12 19.04 В 1 10 км ясно +13.4 -8.1 22 +14 +24 1029.6 1014.5
15 19.04 СЗ 1 10 км 8/0
[Ci fib]
+12.1 -8.6 23 +13 +14 1028.4 1013.2
18 19.04 С 1 10 км 6/0
[Ci fib]
+10.7 -7.3 28 +11 +11 1028.4 1013.1 +13.5
21 19.04 штиль 0 10 км ясно +8.4 -6.4 34 +8 +8 1027.7 1012.3
00 20.04 штиль 0 10 км ясно +6.9 -4.4 44 +7 +7 1026.6 1011.2
03 20.04 штиль 0 10 км 10/0
[As op]
+6.9 -4.9 43 +7 +7 1025.6 1010.2 +6.5
06 20.04 штиль 0 10 км 10/0
[As op]
+10.2 -4.9 34 +10 +12 1024.7 1009.5 +6.5
09 20.04 З 1 10 км 10/0
[As op]
+13.5 -5.7 26 +14 +17 1024.0 1009.0
12 20.04 Ю 1 10 км 10/10 1000 м
[Sc]
+13.6 -3.4 31 +14 +14 1024.1 1009.1
15 20.04 З 1 10 км 10/4 1000 м
[Sc Ac trans]
+12.4 -2.0 37 +13 +13 1024.2 1009.1
18 20.04 СВ 2 10 км 8/5 1000 м
[Sc Ac trans]
+10.9 -0.5 45 +10 +10 1025.0 1009.8 +13.8
21 20.04 В 1 10 км 8/0
[Ac trans]
+9.4 +0.2 53 +9 +9 1025.6 1010.3
00 21.04 В 1 10 км 10/0
[As op]
+8.8 +1.2 59 +9 +9 1025.7 1010.4
03 21.04 СВ 2 10 км 9/4 1000 м
[Sc Ac trans]
+8.6 +0.2 56 +7 +7 1026.4 1011.1 +8.6
06 21.04 В 1 10 км 4/0
[Ac trans]
+11.7 -0.4 43 +12 +17 1027.3 1012.1 +8.5
09 21.04 С 1 10 км 1/1 1000 м
[Cu hum]
+16.3 -5.3 22 +17 +30 опасность
простуды
1027.3 1012.4
12 21.04 З 1 10 км 3/3 1000 м
[Cu hum]
+18.2 -6.2 18 +19 +26 1026.5 1011.6
15 21.04 штиль 0 10 км 4/4 1000 м
[Sc diur, vesp]
+17.1 -6.5 19 +17 +18 1026.0 1011.1
18 21.04 СВ 1 10 км 3/0
[Ac trans]
+14.8 -5.0 25 +16 +16 1027.0 1012.0 +18.3
21 21.04 СВ 1 10 км ясно +12.0 -3.9 33 +12 +12 1028.0 1012.8
00 22.04 штиль 0 10 км ясно +10.2 -3.9 37 +10 +10 1028.7 1013.4
03 22.04 штиль 0 10 км ясно +9.0 -2.5 44 +9 +9 1029.1 1013.8 +8.8

 

Местоположение метеостанции Москва (Балчуг) (город Москва, Россия): широта 55.75 долгота 37.63 высота над уровнем моря 125 м.

В архиве по умолчанию представлена погода в Москве (Балчуг) за последнюю неделю. Архивные данные за месяц целиком и за предыдущие месяцы, начиная с января 2011 года, Вы можете получить, выбрав интересующий диапазон дат из раскрывающегося списка и нажав кнопку "Ввод!".


*Определитесь, кто Вы:
робот инопланетянин человек

Внимание! Время в таблицах - всемирное. Для получения местного времени необходимо прибавить поправку, которая равна 3 ч.

Смотрите также архив погоды в соседних городах и на ближайших метеорологических станциях:

Погода в Москве (город Москва, Россия) (9 км)
Погода в Москве (Строгино) (город Москва, Россия) (15 км)
Погода в Немчиновке (город Москва, Россия) (17 км)
Погода в Москве (Тушино) (город Москва, Россия) (17 км)
Погода в Красногорске (Московская область, Россия) (19 км)
Погода в Москве (Бутово) (город Москва, Россия) (21 км)
Погода в Долгопрудном (Московская область, Россия) (21 км)
Погода в Железнодорожном АМС (Московская область, Россия) (21 км)
Погода в Люберцах (Московская область, Россия) (24 км)
Погода в Внуково (Московская область, Россия) (27 км)

Пояснения к столбцам:

Ветер - указаны скорость ветра в м/с - средняя за 10 мин, порывы в срок и между сроками (в фигурных скобках) и направление, откуда дует ветер: С - северный, СВ - северо-восточный, В - восточный, ЮВ - юго-восточный, Ю - южный, ЮЗ - юго-западный, З - западный, СЗ - северо-западный.
Видимость - горизонтальная дальность видимости в метрах или километрах. При видимости от 1 до 10 км при отсутствии осадков обычно наблюдается дымка, при ухудшении видимости до 1 км и менее - туман. В сухую погоду видимость может ухудшаться дымом, пылью или мглою.
Явления - указаны атмосферные явления, наблюдавшиеся в срок или в последний час перед сроком; фигурными скобками обозначены явления, наблюдавшиеся между сроками (за 1-3 часа до срока); квадратными скобками обозначены град или гололедные отложения с указанием их диаметра в мм.
Облачность - указаны через наклонную черту общая и нижняя облачность в баллах и высота нижней границы облаков в метрах; квадратными скобками обозначены формы облаков: Ci - перистые, Cs - перисто-слоистые, Cc - перисто-кучевые, Ac - высококучевые, As - высокослоистые, Sc - слоисто-кучевые, Ns - слоисто-дождевые, Cu - кучевые, Cb - кучево-дождевые. Подробнее классификацию облаков см. в Атласе облаков (PDF).
T - Температура воздуха - температура, измеренная на высоте 2 м над землей.
Td - Температура точки росы - температура, при понижении до которой содержащийся в воздухе водяной пар достигнет насыщения.
f - Относительная влажность воздуха - влажноcть воздуха, измеренная на высоте 2 м над землей.
Te - Эффективная температура - температура, которую ощущает одетый по сезону человек в тени. Характеристика душности погоды. При расчете учитывается влияние влажности воздуха и скорости ветра на теплоощущения человека.
Tes - Эффективная температура на солнце - температура, которую ощущает человек, с поправкой на солнечный нагрев. Характеристика знойности погоды. Зависит от высоты солнца над горизонтом, облачности и скорости ветра. Ночью, в пасмурную погоду, а также при ветре 12 м/с и более поправка равна нулю.
P - Атмосферное давление - приведенное к уровню моря атмосферное давление.
Po - Атмосферное давление - измеренное на уровне метеостанции атмосферное давление.
Tmin - Минимальная температура - минимум температуры воздуха на высоте 2 м над землей.
Tmax - Максимальная температура - максимум температуры воздуха на высоте 2 м над землей.
R - Количество осадков - Количество выпавших осадков за период времени, мм. При наведении курсора мыши на число - период времени, за который выпало указанное количество осадков.
R24 - Количество осадков - Количество выпавших осадков за 24 часа, мм.
S - Снежный покров - Высота снежного покрова, см. При наведении курсора мыши на число - состояние снежного покрова и степень покрытия местности в баллах.